CW5039 Weather Reports


Display with metric or nautical units.
time (UTC)temp
F
wind
direction
speed
MPH
gust
MPH
rain 1hr
in
rain 24hr
in
rain mn
in
humidity
%
barometer
mb
20260903161405 57 297 12.0 17.0 0.00 0.03 0.00 88 1015.2
20260903160906 57 306 10.0 14.0 0.00 0.03 0.00 88 1015.3
20260903160405 57 294 13.0 18.0 0.00 0.03 0.00 89 1015.4
20260903155905 57 305 11.0 17.0 0.00 0.03 0.00 89 1015.4
20260903155405 57 309 11.0 16.0 0.00 0.03 0.00 89 1015.5
20260903154905 57 301 12.0 14.0 0.00 0.03 0.00 89 1015.5
20260903154404 57 311 12.0 15.0 0.00 0.03 0.00 89 1015.5
20260903153905 57 308 10.0 13.0 0.00 0.03 0.00 89 1015.4
20260903152905 57 308 11.0 13.0 0.00 0.03 0.00 89 1015.4
20260903151405 58 313 12.0 13.0 0.00 0.03 0.00 89 1015.5
20260903150406 58 309 12.0 15.0 0.00 0.03 0.00 89 1015.6
20260903144905 58 310 13.0 17.0 0.00 0.03 0.00 89 1015.7
20260903144405 58 322 12.0 16.0 0.00 0.03 0.00 89 1015.7
20260903143405 58 310 13.0 17.0 0.00 0.03 0.00 90 1015.9
20260903142405 58 315 12.0 16.0 0.00 0.03 0.00 90 1016.0
20260903141905 58 312 12.0 16.0 0.00 0.03 0.00 90 1016.1
20260903141405 58 312 14.0 18.0 0.00 0.03 0.00 90 1016.1
20260903140905 58 305 12.0 14.0 0.00 0.03 0.00 89 1016.2
20260903135905 58 305 14.0 18.0 0.00 0.03 0.00 89 1016.1
20260903135405 58 304 12.0 15.0 0.00 0.03 0.00 89 1016.2
20260903134405 59 303 10.0 15.0 0.00 0.03 0.00 89 1016.3
20260903133905 59 302 13.0 20.0 0.00 0.03 0.00 89 1016.3
20260903133406 59 308 14.0 22.0 0.00 0.03 0.00 89 1016.3
20260903131905 59 291 15.0 20.0 0.00 0.03 0.00 89 1016.3
20260903131405 59 300 17.0 22.0 0.00 0.03 0.00 89 1016.2
20260903124905 59 299 12.0 16.0 0.00 0.03 0.00 90 1016.3
20260903124405 59 302 12.0 16.0 0.00 0.03 0.00 89 1016.3
20260903121904 59 287 13.0 17.0 0.00 0.03 0.00 90 1016.1
20260903121406 59 294 12.0 15.0 0.00 0.03 0.00 90 1016.2
20260903120909 59 290 12.0 14.0 0.00 0.03 0.00 89 1016.2
20260903115405 59 296 13.0 17.0 0.00 0.03 0.03 90 1016.3
20260903114905 59 291 13.0 18.0 0.00 0.03 0.03 90 1016.3
20260903113905 59 289 10.0 15.0 0.00 0.03 0.03 91 1016.4
20260903112905 59 298 12.0 16.0 0.00 0.03 0.03 91 1016.5
20260903112405 59 296 10.0 16.0 0.00 0.03 0.03 91 1016.5
20260903110905 59 298 12.0 16.0 0.00 0.03 0.03 92 1016.6
20260903110404 59 303 12.0 15.0 0.00 0.03 0.03 91 1016.6
20260903105905 59 295 10.0 16.0 0.00 0.03 0.03 91 1016.7
20260903104905 58 300 10.0 12.0 0.00 0.03 0.03 91 1016.7
20260903103405 58 307 8.0 12.0 0.00 0.03 0.03 92 1016.8
20260903101405 58 325 8.0 12.0 0.00 0.03 0.03 92 1017.0
20260903100905 58 322 7.0 12.0 0.00 0.03 0.03 92 1017.1
20260903100404 58 311 8.0 10.0 0.01 0.03 0.03 92 1017.1
20260903095905 58 313 7.0 13.0 0.01 0.03 0.03 92 1017.1
20260903095405 58 317 7.0 12.0 0.01 0.03 0.03 92 1017.1
20260903094905 58 318 6.0 10.0 0.01 0.03 0.03 92 1017.1
20260903094405 58 323 7.0 10.0 0.01 0.03 0.03 92 1017.2
20260903093405 58 309 10.0 12.0 0.01 0.03 0.03 92 1017.1
20260903092904 58 317 10.0 12.0 0.01 0.03 0.03 92 1017.1
20260903092405 58 311 9.0 12.0 0.01 0.03 0.03 92 1017.1
20260903085905 58 315 10.0 13.0 0.00 0.02 0.02 92 1016.8
20260903084905 57 314 10.0 12.0 0.00 0.02 0.02 92 1016.7
20260903083904 56 314 6.0 10.0 0.00 0.02 0.02 92 1016.7
20260903082420 57 335 5.0 6.0 0.00 0.02 0.02 91 1016.8
20260903081405 57 334 6.0 12.0 0.00 0.02 0.02 92 1016.8
20260903080905 57 326 7.0 12.0 0.01 0.02 0.02 92 1016.8
20260903080405 57 322 10.0 13.0 0.01 0.02 0.02 91 1016.8
20260903075905 57 328 7.0 10.0 0.01 0.02 0.02 91 1016.7
20260903074405 57 314 10.0 14.0 0.01 0.02 0.02 91 1016.7
20260903073904 57 312 10.0 12.0 0.01 0.02 0.02 91 1016.7
20260903073404 57 323 9.0 12.0 0.01 0.02 0.02 91 1016.7
20260903071405 57 316 6.0 10.0 0.01 0.02 0.02 91 1016.7
20260903063905 57 314 10.0 15.0 0.00 0.02 0.02 91 1016.6
20260903063404 57 306 8.0 12.0 0.00 0.02 0.02 91 1016.6
20260903062904 57 320 9.0 13.0 0.00 0.02 0.02 91 1016.6
20260903061904 57 330 10.0 13.0 0.00 0.02 0.02 91 1016.5
20260903061404 56 327 8.0 9.0 0.00 0.02 0.02 91 1016.5
20260903060905 56 325 7.0 10.0 0.00 0.02 0.02 91 1016.5
20260903060405 56 344 6.0 9.0 0.00 0.02 0.02 90 1016.5
20260903054405 56 16 6.0 6.0 0.00 0.02 0.02 90 1016.8
20260903053905 56 29 4.0 6.0 0.00 0.02 0.02 90 1016.8
20260903053404 56 29 3.0 5.0 0.01 0.02 0.02 90 1016.9
20260903052905 56 28 4.0 5.0 0.01 0.02 0.02 90 1016.8
20260903052404 56 5 3.0 5.0 0.02 0.02 0.02 89 1016.8
20260903051404 56 5 3.0 3.0 0.02 0.02 0.02 89 1016.8
20260903050405 56 5 3.0 5.0 0.02 0.02 0.02 89 1016.8
20260903045904 56 355 4.0 5.0 0.02 0.02 0.02 88 1016.8
20260903045405 56 356 6.0 9.0 0.02 0.02 0.02 88 1016.9
20260903044904 56 344 6.0 6.0 0.02 0.02 0.02 87 1017.0
20260903043905 57 312 9.0 12.0 0.02 0.02 0.02 86 1017.2
20260903043404 57 311 10.0 14.0 0.01 0.01 0.01 84 1017.3
20260903042906 58 299 14.0 21.0 0.01 0.01 0.01 82 1017.3
20260903042405 58 297 10.0 16.0 0.00 0.00 0.00 80 1017.3
20260903040905 60 299 12.0 14.0 0.00 0.00 0.00 76 1017.3
20260903040405 60 311 9.0 13.0 0.00 0.00 0.00 75 1017.2
20260903034904 60 301 10.0 17.0 0.00 0.00 0.00 74 1017.3
20260903034405 60 285 7.0 12.0 0.00 0.00 0.00 73 1017.4
20260903033404 60 288 14.0 20.0 0.00 0.00 0.00 71 1017.5
20260903032905 60 281 12.0 18.0 0.00 0.00 0.00 71 1017.6
20260903031905 60 286 17.0 22.0 0.00 0.00 0.00 69 1017.6
20260903030404 61 282 16.0 20.0 0.00 0.00 0.00 70 1017.6
20260903025404 62 280 15.0 20.0 0.00 0.00 0.00 70 1017.5
20260903024905 62 278 14.0 20.0 0.00 0.00 0.00 71 1017.6
20260903024404 62 292 16.0 21.0 0.00 0.00 0.00 69 1017.6
20260903022404 62 281 18.0 24.0 0.00 0.00 0.00 67 1017.7
20260903020404 63 283 19.0 23.0 0.00 0.00 0.00 69 1017.7
20260903014406 63 279 18.0 23.0 0.00 0.00 0.00 70 1017.9
20260903013405 62 277 17.0 21.0 0.00 0.00 0.00 71 1018.0
20260903011904 63 283 14.0 18.0 0.00 0.00 0.00 68 1018.2
20260903010906 62 274 14.0 18.0 0.00 0.00 0.00 70 1018.3
20260903010408 62 268 14.0 18.0 0.00 0.00 0.00 72 1018.4
20260903005905 62 276 16.0 21.0 0.00 0.00 0.00 71 1018.4
20260903005405 63 279 15.0 20.0 0.00 0.00 0.00 69 1018.6
20260903004405 64 273 14.0 20.0 0.00 0.00 0.00 71 1018.7
20260903003404 63 287 13.0 16.0 0.00 0.00 0.00 72 1018.8
20260903002405 63 266 14.0 18.0 0.00 0.00 0.00 70 1018.9
20260902234904 62 274 13.0 18.0 0.00 0.00 0.00 72 1019.1
20260902231905 63 276 12.0 17.0 0.00 0.00 0.00 70 1019.3
20260902230405 62 290 13.0 18.0 0.00 0.00 0.00 72 1019.3
20260902224904 62 259 12.0 17.0 0.00 0.00 0.00 72 1019.3
20260902224405 63 267 15.0 17.0 0.00 0.00 0.00 76 1019.3
20260902223904 62 278 10.0 15.0 0.00 0.00 0.00 75 1019.3
20260902222904 62 264 14.0 17.0 0.00 0.00 0.00 76 1019.4
20260902221904 61 288 15.0 20.0 0.00 0.00 0.00 77 1019.4
20260902221404 61 275 12.0 17.0 0.00 0.00 0.00 80 1019.4
20260902215904 61 264 13.0 15.0 0.00 0.00 0.00 84 1019.4
20260902212903 59 295 11.0 14.0 0.00 0.00 0.00 86 1019.5
20260902212404 59 304 9.0 13.0 0.00 0.00 0.00 86 1019.6
20260902210905 58 303 12.0 14.0 0.00 0.00 0.00 87 1019.5
20260902205404 57 297 11.0 13.0 0.00 0.00 0.00 90 1019.5
20260902204904 56 291 9.0 12.0 0.00 0.00 0.00 90 1019.5
20260902202904 54 299 4.0 6.0 0.00 0.00 0.00 92 1019.4
20260902200404 51 329 3.0 5.0 0.00 0.00 0.00 92 1019.4
20260902194904 50 321 3.0 5.0 0.00 0.00 0.00 92 1019.3
20260902194404 50 321 3.0 5.0 0.00 0.00 0.00 92 1019.3
20260902193404 49 319 5.0 5.0 0.00 0.00 0.00 92 1019.3
20260902191904 49 317 3.0 3.0 0.00 0.00 0.00 92 1019.3
20260902190406 50 291 2.0 3.0 0.00 0.00 0.00 92 1019.3
20260902185905 49 291 2.0 3.0 0.00 0.00 0.00 92 1019.3
20260902184905 49 249 1.0 3.0 0.00 0.00 0.00 92 1019.2
20260902183905 50 246 2.0 3.0 0.00 0.00 0.00 92 1019.0
20260902181905 48 265 3.0 5.0 0.00 0.00 0.00 92 1019.1
20260902181405 47 285 4.0 6.0 0.00 0.00 0.00 92 1019.0
20260902175905 47 294 4.0 6.0 0.00 0.00 0.00 91 1018.8
20260902175405 48 298 5.0 6.0 0.00 0.00 0.00 92 1018.7
20260902174906 48 303 5.0 7.0 0.00 0.00 0.00 92 1018.6
20260902174405 48 303 6.0 7.0 0.00 0.00 0.00 92 1018.7
20260902173905 48 300 6.0 7.0 0.00 0.00 0.00 92 1018.7
20260902173405 47 302 6.0 7.0 0.00 0.00 0.00 91 1018.6
20260902172905 47 311 5.0 6.0 0.00 0.00 0.00 91 1018.7
20260902172405 47 327 4.0 5.0 0.00 0.00 0.00 91 1018.7
20260902165405 49 329 2.0 5.0 0.00 0.00 0.00 91 1018.6
20260902164905 49 329 3.0 5.0 0.00 0.00 0.00 91 1018.5
20260902164405 49 328 3.0 5.0 0.00 0.00 0.00 91 1018.6
20260902163905 49 324 1.0 3.0 0.00 0.00 0.00 91 1018.5